����������;��������(kWh)
2016-03-07 00:00;86,2
2016-03-07 00:15;88,35
2016-03-07 00:30;88,45
2016-03-07 00:45;85,3
2016-03-07 01:00;85,55
2016-03-07 01:15;110,25
2016-03-07 01:30;115,7
2016-03-07 01:45;106,7
2016-03-07 02:00;95,85
2016-03-07 02:15;89,55
2016-03-07 02:30;86
2016-03-07 02:45;84,15
2016-03-07 03:00;89,45
2016-03-07 03:15;87,75
2016-03-07 03:30;87,35
2016-03-07 03:45;92,05
2016-03-07 04:00;90,9
2016-03-07 04:15;88,65
2016-03-07 04:30;91,5
2016-03-07 04:45;87,55
2016-03-07 05:00;86,5
2016-03-07 05:15;87,85
2016-03-07 05:30;90,1
2016-03-07 05:45;89,15
2016-03-07 06:00;92,2
2016-03-07 06:15;96,25
2016-03-07 06:30;94,4
2016-03-07 06:45;92,5
2016-03-07 07:00;88,05
2016-03-07 07:15;97,15
2016-03-07 07:30;92,25
2016-03-07 07:45;100,7
2016-03-07 08:00;104,95
2016-03-07 08:15;108,35
2016-03-07 08:30;111,65
2016-03-07 08:45;122,8
2016-03-07 09:00;156,5
2016-03-07 09:15;197,85
2016-03-07 09:30;209,5
2016-03-07 09:45;174,95
2016-03-07 10:00;174,25
2016-03-07 10:15;166,7
2016-03-07 10:30;167,25
2016-03-07 10:45;170,45
2016-03-07 11:00;180,45
2016-03-07 11:15;175,6
2016-03-07 11:30;178,3
2016-03-07 11:45;175,3
2016-03-07 12:00;178,4
2016-03-07 12:15;178,5
2016-03-07 12:30;175,55
2016-03-07 12:45;188,6
2016-03-07 13:00;177,65
2016-03-07 13:15;186,5
2016-03-07 13:30;177,2
2016-03-07 13:45;186
2016-03-07 14:00;172
2016-03-07 14:15;183,7
2016-03-07 14:30;164,7
2016-03-07 14:45;173
2016-03-07 15:00;175,9
2016-03-07 15:15;165,05
2016-03-07 15:30;167,55
2016-03-07 15:45;149,9
2016-03-07 16:00;163,5
2016-03-07 16:15;141,85
2016-03-07 16:30;151,1
2016-03-07 16:45;151,95
2016-03-07 17:00;148,55
2016-03-07 17:15;145,8
2016-03-07 17:30;143,65
2016-03-07 17:45;145,85
2016-03-07 18:00;152
2016-03-07 18:15;149,7
2016-03-07 18:30;147,8
2016-03-07 18:45;149,45
2016-03-07 19:00;149,65
2016-03-07 19:15;138
2016-03-07 19:30;136,4
2016-03-07 19:45;129,95
2016-03-07 20:00;128,1
2016-03-07 20:15;124,4
2016-03-07 20:30;124,1
2016-03-07 20:45;121,85
2016-03-07 21:00;119,5
2016-03-07 21:15;114,5
2016-03-07 21:30;115,55
2016-03-07 21:45;108,9
2016-03-07 22:00;107,3
2016-03-07 22:15;107,3
2016-03-07 22:30;103,9
2016-03-07 22:45;102,7
2016-03-07 23:00;96,65
2016-03-07 23:15;93,25
2016-03-07 23:30;93,3
2016-03-07 23:45;89,85
2016-03-08 00:00;85,3
2016-03-08 00:15;85,15
2016-03-08 00:30;83,2
2016-03-08 00:45;80,75
2016-03-08 01:00;80,65
2016-03-08 01:15;81,1
2016-03-08 01:30;95,2
2016-03-08 01:45;106,5
2016-03-08 02:00;97,5
2016-03-08 02:15;93
2016-03-08 02:30;89,7
2016-03-08 02:45;90,25
2016-03-08 03:00;90,15
2016-03-08 03:15;88,7
2016-03-08 03:30;89,9
2016-03-08 03:45;91,95
2016-03-08 04:00;91,05
2016-03-08 04:15;87,05
2016-03-08 04:30;89,85
2016-03-08 04:45;86,4
2016-03-08 05:00;84,9
2016-03-08 05:15;87,15
2016-03-08 05:30;88,25
2016-03-08 05:45;87,25
2016-03-08 06:00;89,05
2016-03-08 06:15;89,3
2016-03-08 06:30;94,45
2016-03-08 06:45;92,55
2016-03-08 07:00;91,75
2016-03-08 07:15;97,5
2016-03-08 07:30;95,65
2016-03-08 07:45;101,65
2016-03-08 08:00;135,05
2016-03-08 08:15;111,85
2016-03-08 08:30;118,25
2016-03-08 08:45;120,45
2016-03-08 09:00;127,95
2016-03-08 09:15;149,5
2016-03-08 09:30;154,3
2016-03-08 09:45;159,95
2016-03-08 10:00;158,05
2016-03-08 10:15;152,55
2016-03-08 10:30;161,25
2016-03-08 10:45;165
2016-03-08 11:00;163,3
2016-03-08 11:15;157,85
2016-03-08 11:30;163,6
2016-03-08 11:45;162,45
2016-03-08 12:00;164,7
2016-03-08 12:15;163
2016-03-08 12:30;166,35
2016-03-08 12:45;168,75
2016-03-08 13:00;170
2016-03-08 13:15;168,75
2016-03-08 13:30;172,75
2016-03-08 13:45;163,75
2016-03-08 14:00;168,95
2016-03-08 14:15;164,5
2016-03-08 14:30;162,4
2016-03-08 14:45;156,5
2016-03-08 15:00;155,4
2016-03-08 15:15;157
2016-03-08 15:30;157,55
2016-03-08 15:45;153,2
2016-03-08 16:00;152,35
2016-03-08 16:15;150,15
2016-03-08 16:30;151,5
2016-03-08 16:45;146,45
2016-03-08 17:00;149
2016-03-08 17:15;144
2016-03-08 17:30;141,65
2016-03-08 17:45;139,85
2016-03-08 18:00;139,05
2016-03-08 18:15;138,45
2016-03-08 18:30;139,15
2016-03-08 18:45;142,05
2016-03-08 19:00;144,4
2016-03-08 19:15;138,75
2016-03-08 19:30;135,9
2016-03-08 19:45;133,7
2016-03-08 20:00;128,3
2016-03-08 20:15;118,8
2016-03-08 20:30;113,05
2016-03-08 20:45;109,6
2016-03-08 21:00;113,1
2016-03-08 21:15;107,45
2016-03-08 21:30;105,6
2016-03-08 21:45;101,3
2016-03-08 22:00;99,55
2016-03-08 22:15;96,65
2016-03-08 22:30;95,25
2016-03-08 22:45;94,45
2016-03-08 23:00;88,6
2016-03-08 23:15;83,4
2016-03-08 23:30;81
2016-03-08 23:45;80,65
2016-03-09 00:00;82,35
2016-03-09 00:15;80,45
2016-03-09 00:30;79,85
2016-03-09 00:45;79,35
2016-03-09 01:00;77,45
2016-03-09 01:15;77,8
2016-03-09 01:30;76,05
2016-03-09 01:45;77,2
2016-03-09 02:00;77,8
2016-03-09 02:15;104,55
2016-03-09 02:30;100,1
2016-03-09 02:45;89,65
2016-03-09 03:00;89,55
2016-03-09 03:15;84,55
2016-03-09 03:30;85,1
2016-03-09 03:45;87,75
2016-03-09 04:00;85,6
2016-03-09 04:15;83,25
2016-03-09 04:30;87,95
2016-03-09 04:45;83,5
2016-03-09 05:00;82,8
2016-03-09 05:15;82,95
2016-03-09 05:30;84,6
2016-03-09 05:45;82,9
2016-03-09 06:00;82,65
2016-03-09 06:15;84,55
2016-03-09 06:30;95,15
2016-03-09 06:45;97,2
2016-03-09 07:00;94,65
2016-03-09 07:15;101,05
2016-03-09 07:30;93,6
2016-03-09 07:45;104,8
2016-03-09 08:00;117,55
2016-03-09 08:15;121,35
2016-03-09 08:30;123,25
2016-03-09 08:45;129,2
2016-03-09 09:00;125,1
2016-03-09 09:15;140,95
2016-03-09 09:30;141,65
2016-03-09 09:45;145
2016-03-09 10:00;159,65
2016-03-09 10:15;195,75
2016-03-09 10:30;207,1
2016-03-09 10:45;172,2
2016-03-09 11:00;162,3
2016-03-09 11:15;168,3
2016-03-09 11:30;168,35
2016-03-09 11:45;175,3
2016-03-09 12:00;170,15
2016-03-09 12:15;182
2016-03-09 12:30;178
2016-03-09 12:45;184,45
2016-03-09 13:00;172,8
2016-03-09 13:15;187,3
2016-03-09 13:30;182,55
2016-03-09 13:45;185,9
2016-03-09 14:00;177
2016-03-09 14:15;175,9
2016-03-09 14:30;175,9
2016-03-09 14:45;170,8
2016-03-09 15:00;172,55
2016-03-09 15:15;170,2
2016-03-09 15:30;177,95
2016-03-09 15:45;173,9
2016-03-09 16:00;175,7
2016-03-09 16:15;170,5
2016-03-09 16:30;161,85
2016-03-09 16:45;163,45
2016-03-09 17:00;161,55
2016-03-09 17:15;160,05
2016-03-09 17:30;154,1
2016-03-09 17:45;150
2016-03-09 18:00;154,5
2016-03-09 18:15;152,2
2016-03-09 18:30;149,1
2016-03-09 18:45;156,75
2016-03-09 19:00;152,95
2016-03-09 19:15;144,55
2016-03-09 19:30;145,55
2016-03-09 19:45;144,5
2016-03-09 20:00;137,3
2016-03-09 20:15;139,5
2016-03-09 20:30;133,6
2016-03-09 20:45;126,5
2016-03-09 21:00;126
2016-03-09 21:15;115,55
2016-03-09 21:30;109,35
2016-03-09 21:45;105,75
2016-03-09 22:00;107,3
2016-03-09 22:15;102,2
2016-03-09 22:30;100,3
2016-03-09 22:45;97,85
2016-03-09 23:00;96
2016-03-09 23:15;93,3
2016-03-09 23:30;87,25
2016-03-09 23:45;85,4
2016-03-10 00:00;85,05
2016-03-10 00:15;86,4
2016-03-10 00:30;88,1
2016-03-10 00:45;88,05
2016-03-10 01:00;86,75
2016-03-10 01:15;87,8
2016-03-10 01:30;87,5
2016-03-10 01:45;84,95
2016-03-10 02:00;84,7
2016-03-10 02:15;85,3
2016-03-10 02:30;85,05
2016-03-10 02:45;103,2
2016-03-10 03:00;116,55
2016-03-10 03:15;105,35
2016-03-10 03:30;98,7
2016-03-10 03:45;99,15
2016-03-10 04:00;95,7
2016-03-10 04:15;91,15
2016-03-10 04:30;94,45
2016-03-10 04:45;90,3
2016-03-10 05:00;88,3
2016-03-10 05:15;91,8
2016-03-10 05:30;91,1
2016-03-10 05:45;93,55
2016-03-10 06:00;89,85
2016-03-10 06:15;93,45
2016-03-10 06:30;98,55
2016-03-10 06:45;93,85
2016-03-10 07:00;101,3
2016-03-10 07:15;109,85
2016-03-10 07:30;109
2016-03-10 07:45;117,25
2016-03-10 08:00;172,8
2016-03-10 08:15;125,65
2016-03-10 08:30;125,05
2016-03-10 08:45;125,75
2016-03-10 09:00;132,15
2016-03-10 09:15;199,25
2016-03-10 09:30;206,35
2016-03-10 09:45;162,25
2016-03-10 10:00;177,65
2016-03-10 10:15;153,5
2016-03-10 10:30;173,9
2016-03-10 10:45;166,1
2016-03-10 11:00;183,4
2016-03-10 11:15;179,6
2016-03-10 11:30;183
2016-03-10 11:45;170,25
2016-03-10 12:00;190,45
2016-03-10 12:15;168
2016-03-10 12:30;190,8
2016-03-10 12:45;179,55
2016-03-10 13:00;190,6
2016-03-10 13:15;182,7
2016-03-10 13:30;197,55
2016-03-10 13:45;184,7
2016-03-10 14:00;191,1
2016-03-10 14:15;183,2
2016-03-10 14:30;184,65
2016-03-10 14:45;183,9
2016-03-10 15:00;116,85
2016-03-10 15:15;169,4
2016-03-10 15:30;163,25
2016-03-10 15:45;159,4
2016-03-10 16:00;153,05
2016-03-10 16:15;148,35
2016-03-10 16:30;154,55
2016-03-10 16:45;159,45
2016-03-10 17:00;160,5
2016-03-10 17:15;155,5
2016-03-10 17:30;154,65
2016-03-10 17:45;156,6
2016-03-10 18:00;154,9
2016-03-10 18:15;157
2016-03-10 18:30;155,35
2016-03-10 18:45;153,2
2016-03-10 19:00;157,35
2016-03-10 19:15;152,8
2016-03-10 19:30;140,55
2016-03-10 19:45;136,8
2016-03-10 20:00;133,3
2016-03-10 20:15;136,05
2016-03-10 20:30;128,05
2016-03-10 20:45;129,8
2016-03-10 21:00;133,6
2016-03-10 21:15;123,15
2016-03-10 21:30;122,3
2016-03-10 21:45;114,4
2016-03-10 22:00;113,5
2016-03-10 22:15;107,15
2016-03-10 22:30;107,2
2016-03-10 22:45;102,5
2016-03-10 23:00;102,45
2016-03-10 23:15;99,55
2016-03-10 23:30;96
2016-03-10 23:45;94,4
2016-03-11 00:00;96,7
2016-03-11 00:15;90,5
2016-03-11 00:30;90,45
2016-03-11 00:45;87,5
2016-03-11 01:00;83,35
2016-03-11 01:15;82,05
2016-03-11 01:30;82,2
2016-03-11 01:45;80
2016-03-11 02:00;80,85
2016-03-11 02:15;78,25
2016-03-11 02:30;79,15
2016-03-11 02:45;76,35
2016-03-11 03:00;82
2016-03-11 03:15;100
2016-03-11 03:30;106,1
2016-03-11 03:45;97,5
2016-03-11 04:00;91,6
2016-03-11 04:15;84,5
2016-03-11 04:30;87,3
2016-03-11 04:45;81,7
2016-03-11 05:00;82,6
2016-03-11 05:15;83,8
2016-03-11 05:30;85,6
2016-03-11 05:45;84,15
2016-03-11 06:00;80,9
2016-03-11 06:15;82,75
2016-03-11 06:30;92,05
2016-03-11 06:45;89,25
2016-03-11 07:00;88,2
2016-03-11 07:15;99,55
2016-03-11 07:30;97,65
2016-03-11 07:45;105,5
2016-03-11 08:00;165,95
2016-03-11 08:15;174,5
2016-03-11 08:30;176,25
2016-03-11 08:45;134,4
2016-03-11 09:00;147,9
2016-03-11 09:15;159,65
2016-03-11 09:30;154,7
2016-03-11 09:45;171,35
2016-03-11 10:00;156,15
2016-03-11 10:15;161
2016-03-11 10:30;155,1
2016-03-11 10:45;159,95
2016-03-11 11:00;153,3
2016-03-11 11:15;166,45
2016-03-11 11:30;153,55
2016-03-11 11:45;161,2
2016-03-11 12:00;166,85
2016-03-11 12:15;163,35
2016-03-11 12:30;173,1
2016-03-11 12:45;160,2
2016-03-11 13:00;174,7
2016-03-11 13:15;166,6
2016-03-11 13:30;179,4
2016-03-11 13:45;163,65
2016-03-11 14:00;175,95
2016-03-11 14:15;151,3
2016-03-11 14:30;159,95
2016-03-11 14:45;149,9
2016-03-11 15:00;151,5
2016-03-11 15:15;157,1
2016-03-11 15:30;142,55
2016-03-11 15:45;154,4
2016-03-11 16:00;144,35
2016-03-11 16:15;156,55
2016-03-11 16:30;135,3
2016-03-11 16:45;134,8
2016-03-11 17:00;132,5
2016-03-11 17:15;127,55
2016-03-11 17:30;125,6
2016-03-11 17:45;121,25
2016-03-11 18:00;121,75
2016-03-11 18:15;122,1
2016-03-11 18:30;129,95
2016-03-11 18:45;132,6
2016-03-11 19:00;144,65
2016-03-11 19:15;133,5
2016-03-11 19:30;135,3
2016-03-11 19:45;132,2
2016-03-11 20:00;129,55
2016-03-11 20:15;123,75
2016-03-11 20:30;124,5
2016-03-11 20:45;123,75
2016-03-11 21:00;118,25
2016-03-11 21:15;120,5
2016-03-11 21:30;111,9
2016-03-11 21:45;105,4
2016-03-11 22:00;101,6
2016-03-11 22:15;94,9
2016-03-11 22:30;93,4
2016-03-11 22:45;90,75
2016-03-11 23:00;91,1
2016-03-11 23:15;85,8
2016-03-11 23:30;85,9
2016-03-11 23:45;82,6
2016-03-12 00:00;85
2016-03-12 00:15;82,5
2016-03-12 00:30;81,6
2016-03-12 00:45;82,4
2016-03-12 01:00;82
2016-03-12 01:15;82,95
2016-03-12 01:30;82,25
2016-03-12 01:45;82,8
2016-03-12 02:00;82,7
2016-03-12 02:15;80,1
2016-03-12 02:30;82,35
2016-03-12 02:45;80,2
2016-03-12 03:00;85,05
2016-03-12 03:15;81,2
2016-03-12 03:30;83,35
2016-03-12 03:45;85,45
2016-03-12 04:00;83,95
2016-03-12 04:15;83,1
2016-03-12 04:30;89,65
2016-03-12 04:45;85,55
2016-03-12 05:00;83,05
2016-03-12 05:15;85,8
2016-03-12 05:30;87,6
2016-03-12 05:45;87,45
2016-03-12 06:00;86
2016-03-12 06:15;91,9
2016-03-12 06:30;90,05
2016-03-12 06:45;86,8
2016-03-12 07:00;82,3
2016-03-12 07:15;81,45
2016-03-12 07:30;81,65
2016-03-12 07:45;77,05
2016-03-12 08:00;83,2
2016-03-12 08:15;80,65
2016-03-12 08:30;79,25
2016-03-12 08:45;73,8
2016-03-12 09:00;73,75
2016-03-12 09:15;76,25
2016-03-12 09:30;77,1
2016-03-12 09:45;81,85
2016-03-12 10:00;86,7
2016-03-12 10:15;80,45
2016-03-12 10:30;78,9
2016-03-12 10:45;81,75
2016-03-12 11:00;79,5
2016-03-12 11:15;73,1
2016-03-12 11:30;73,8
2016-03-12 11:45;72,95
2016-03-12 12:00;75,2
2016-03-12 12:15;74,35
2016-03-12 12:30;79,15
2016-03-12 12:45;77,05
2016-03-12 13:00;75,85
2016-03-12 13:15;74,1
2016-03-12 13:30;74,95
2016-03-12 13:45;72,6
2016-03-12 14:00;74,6
2016-03-12 14:15;74,5
2016-03-12 14:30;75,25
2016-03-12 14:45;79,3
2016-03-12 15:00;78,6
2016-03-12 15:15;78,45
2016-03-12 15:30;77,5
2016-03-12 15:45;76,35
2016-03-12 16:00;75,15
2016-03-12 16:15;80,4
2016-03-12 16:30;82,05
2016-03-12 16:45;84,65
2016-03-12 17:00;87,5
2016-03-12 17:15;88,5
2016-03-12 17:30;83,35
2016-03-12 17:45;77,85
2016-03-12 18:00;77,9
2016-03-12 18:15;80,7
2016-03-12 18:30;80,7
2016-03-12 18:45;84
2016-03-12 19:00;86,95
2016-03-12 19:15;87,6
2016-03-12 19:30;87,75
2016-03-12 19:45;88,75
2016-03-12 20:00;89,6
2016-03-12 20:15;85,65
2016-03-12 20:30;91,4
2016-03-12 20:45;91,1
2016-03-12 21:00;92,75
2016-03-12 21:15;94,4
2016-03-12 21:30;95,15
2016-03-12 21:45;82,95
2016-03-12 22:00;82,25
2016-03-12 22:15;79,25
2016-03-12 22:30;80,45
2016-03-12 22:45;80,6
2016-03-12 23:00;81
2016-03-12 23:15;80,95
2016-03-12 23:30;80,3
2016-03-12 23:45;79,05
2016-03-13 00:00;78,05
2016-03-13 00:15;78,1
2016-03-13 00:30;76,6
2016-03-13 00:45;77,7
2016-03-13 01:00;76,75
2016-03-13 01:15;78,55
2016-03-13 01:30;75,45
2016-03-13 01:45;76,7
2016-03-13 02:00;75,55
2016-03-13 02:15;76,55
2016-03-13 02:30;76,5
2016-03-13 02:45;75,2
2016-03-13 03:00;80,6
2016-03-13 03:15;76,2
2016-03-13 03:30;77,45
2016-03-13 03:45;77,25
2016-03-13 04:00;79,65
2016-03-13 04:15;75
2016-03-13 04:30;78,55
2016-03-13 04:45;74,8
2016-03-13 05:00;73,8
2016-03-13 05:15;75,95
2016-03-13 05:30;75,6
2016-03-13 05:45;73,7
2016-03-13 06:00;72,55
2016-03-13 06:15;78,4
2016-03-13 06:30;76,1
2016-03-13 06:45;81,05
2016-03-13 07:00;78,4
2016-03-13 07:15;80,6
2016-03-13 07:30;82,35
2016-03-13 07:45;81,1
2016-03-13 08:00;79,75
2016-03-13 08:15;79,15
2016-03-13 08:30;79,95
2016-03-13 08:45;70,15
2016-03-13 09:00;69,8
2016-03-13 09:15;75,35
2016-03-13 09:30;80,35
2016-03-13 09:45;79,15
2016-03-13 10:00;81,25
2016-03-13 10:15;71,6
2016-03-13 10:30;73,5
2016-03-13 10:45;71,8
2016-03-13 11:00;70,8
2016-03-13 11:15;70
2016-03-13 11:30;67,9
2016-03-13 11:45;71,1
2016-03-13 12:00;71,1
2016-03-13 12:15;73,1
2016-03-13 12:30;76,45
2016-03-13 12:45;73,4
2016-03-13 13:00;74,7
2016-03-13 13:15;73,15
2016-03-13 13:30;75,6
2016-03-13 13:45;69,2
2016-03-13 14:00;70,7
2016-03-13 14:15;70,35
2016-03-13 14:30;74,35
2016-03-13 14:45;78,2
2016-03-13 15:00;78,1
2016-03-13 15:15;80,25
2016-03-13 15:30;79,6
2016-03-13 15:45;82,95
2016-03-13 16:00;79,8
2016-03-13 16:15;76,15
2016-03-13 16:30;78,75
2016-03-13 16:45;79
2016-03-13 17:00;77,3
2016-03-13 17:15;77,6
2016-03-13 17:30;76,8
2016-03-13 17:45;78,75
2016-03-13 18:00;79,55
2016-03-13 18:15;79,85
2016-03-13 18:30;80,3
2016-03-13 18:45;83,45
2016-03-13 19:00;82,8
2016-03-13 19:15;85,1
2016-03-13 19:30;83
2016-03-13 19:45;85,4
2016-03-13 20:00;86,6
2016-03-13 20:15;95,9
2016-03-13 20:30;93,4
2016-03-13 20:45;93,35
2016-03-13 21:00;90,6
2016-03-13 21:15;93,75
2016-03-13 21:30;90,8
2016-03-13 21:45;92
2016-03-13 22:00;85,25
2016-03-13 22:15;81,1
2016-03-13 22:30;83,55
2016-03-13 22:45;83,55
2016-03-13 23:00;83,2
2016-03-13 23:15;84,6
2016-03-13 23:30;83,95
2016-03-13 23:45;84,95

